Location: Miss�
(46.9484°N, 0.1922°W)
Time: 04:00:21
(UTC+00:00)

IRS-1C Rocket - Pass Details

Date: 02 March 2021
Orbit: 800 x 806 km, 99.0° (Epoch: 17 April)

Event Time Altitude Azimuth Distance (km) Brightness Sun altitude
Rises 18:30:38 0° 166° (SSE) 3,302 7.2 -8.1°
Reaches altitude 10° 18:32:57 10° 168° (SSE) 2,376 6.4 -8.5°
Maximum altitude 18:38:13 80° 255° (WSW) 823 4.3 -9.4°
Drops below altitude 10° 18:43:32 10° 343° (NNW) 2,397 6.8 -10.3°
Sets 18:45:53 0° 345° (NNW) 3,333 7.5 -10.7°
